EW5171 Weather Reports


time (UTC)temp
F
wind
direction
speed
knots
gust
knots
rain 1hr
in
rain 24hr
in
rain mn
in
humidity
%
barometer
mb
20260506093052 58 43 1.7 4.3 0.00 0.00 0.00 43 1012.2
20260506092545 57 133 1.7 4.3 0.00 0.00 0.00 44 1012.2
20260506092044 57 112 0.9 3.5 0.00 0.00 0.00 44 1012.2
20260506091544 57 46 1.7 4.3 0.00 0.00 0.00 42 1012.2
20260506091043 57 64 1.7 5.2 0.00 0.00 0.00 42 1012.3
20260506090543 58 79 0.9 7.0 0.00 0.00 0.00 41 1012.3
20260506090041 57 37 1.7 7.0 0.00 0.00 0.00 40 1012.3
20260506085540 57 74 0.9 3.5 0.00 0.00 0.00 40 1012.2
20260506085038 57 55 0.9 4.3 0.00 0.00 0.00 42 1012.2
20260506084538 56 53 1.7 4.3 0.00 0.00 0.00 41 1012.2
20260506084039 56 149 1.7 4.3 0.00 0.00 0.00 39 1012.2
20260506083537 56 63 1.7 4.3 0.00 0.00 0.00 39 1012.1
20260506083036 56 47 1.7 4.3 0.00 0.00 0.00 38 1012.1
20260506082533 56 52 0.9 3.5 0.00 0.00 0.00 39 1012.1
20260506082033 56 81 0.9 3.5 0.00 0.00 0.00 37 1012.1
20260506081531 56 53 0.9 4.3 0.00 0.00 0.00 37 1012.1
20260506081031 55 32 0.0 3.5 0.00 0.00 0.00 44 1012.1
20260506080531 55 117 0.9 3.5 0.00 0.00 0.00 43 1012.1
20260506073527 56 55 0.0 3.5 0.00 0.00 0.00 42 1012.2
20260506073026 55 82 0.9 3.5 0.00 0.00 0.00 42 1012.1
20260506072524 55 110 0.9 3.5 0.00 0.00 0.00 42 1012.1
20260506072022 55 67 0.9 3.5 0.00 0.00 0.00 43 1012.2
20260506071528 54 49 0.9 3.5 0.00 0.00 0.00 44 1012.1
20260506071020 54 54 0.9 2.6 0.00 0.00 0.00 44 1012.1
20260506070518 54 136 0.0 2.6 0.00 0.00 0.00 44 1012.1
20260506062509 49 53 0.0 2.6 0.00 0.00 0.00 73 1012.0
20260506062005 48 186 0.0 1.7 0.00 0.00 0.00 80 1012.1
20260506061508 47 217 0.9 2.6 0.00 0.00 0.00 84 1012.1
20260506061003 46 258 0.0 1.7 0.00 0.00 0.00 92 1012.1
20260506060502 45 258 0.0 3.5 0.00 0.00 0.00 94 1012.0
20260506060105 44 51 0.0 3.5 0.00 0.00 0.00 95 1012.1
20260506051046 38 171 0.0 0.0 0.00 0.00 0.00 95 1012.2
20260506050545 37 171 0.0 0.0 0.00 0.00 0.00 95 1012.2
20260506045043 36 171 0.0 0.0 0.00 0.00 0.00 95 1012.1
20260506044546 35 171 0.0 0.0 0.00 0.00 0.00 94 1012.1
20260506044045 35 171 0.0 0.0 0.00 0.00 0.00 94 1012.0
20260506043541 35 171 0.0 0.0 0.00 0.00 0.00 95 1012.1
20260506043041 35 171 0.0 0.0 0.00 0.00 0.00 94 1012.1
20260506042541 35 171 0.0 0.0 0.00 0.00 0.00 95 1012.1
20260506042040 34 171 0.0 0.0 0.00 0.00 0.00 94 1012.0
20260506041539 34 171 0.0 0.0 0.00 0.00 0.00 94 1012.1
20260506041039 34 171 0.0 0.0 0.00 0.00 0.00 94 1012.2
20260506040539 33 171 0.0 0.0 0.00 0.00 0.00 94 1012.1
20260506040055 33 171 0.0 0.0 0.00 0.00 0.00 94 1012.2
20260506035538 33 171 0.0 0.0 0.00 0.00 0.00 94 1012.2
20260506035037 33 171 0.0 0.0 0.00 0.00 0.00 94 1012.2
20260506034537 33 171 0.0 0.0 0.00 0.00 0.00 94 1012.2
20260506034035 33 171 0.0 0.0 0.00 0.00 0.00 94 1012.2
20260506033535 32 171 0.0 0.0 0.00 0.00 0.00 93 1012.2
20260506033034 32 171 0.0 0.0 0.00 0.00 0.00 93 1012.3
20260506032534 32 171 0.0 0.0 0.00 0.00 0.00 93 1012.3
20260506032035 32 171 0.0 0.0 0.00 0.00 0.00 93 1012.4
20260506031547 32 171 0.0 0.0 0.00 0.00 0.00 93 1012.5
20260506031032 32 171 0.0 0.0 0.00 0.00 0.00 93 1012.4
20260506030532 32 171 0.0 0.0 0.00 0.00 0.00 93 1012.6
20260506030031 33 171 0.0 0.0 0.00 0.00 0.00 93 1012.5
20260506025530 33 171 0.0 0.0 0.00 0.00 0.00 93 1012.5
20260506025030 33 171 0.0 0.0 0.00 0.00 0.00 93 1012.5
20260506024530 33 171 0.0 0.0 0.00 0.00 0.00 93 1012.4
20260506024031 33 171 0.0 0.0 0.00 0.00 0.00 93 1012.4
20260506023531 33 171 0.0 0.0 0.00 0.00 0.00 93 1012.5
20260506023030 33 171 0.0 0.0 0.00 0.00 0.00 93 1012.6
20260506022528 33 171 0.0 0.0 0.00 0.00 0.00 93 1012.5
20260506022028 33 171 0.0 0.0 0.00 0.00 0.00 93 1012.6
20260506021528 33 171 0.0 0.0 0.00 0.00 0.00 92 1012.6
20260506021028 33 171 0.0 0.0 0.00 0.00 0.00 92 1012.5
20260506020530 33 171 0.0 0.0 0.00 0.00 0.00 92 1012.6
20260506020027 33 171 0.0 0.0 0.00 0.00 0.00 92 1012.5
20260506015525 33 171 0.0 0.0 0.00 0.00 0.00 92 1012.5
20260506015026 33 171 0.0 0.0 0.00 0.00 0.00 92 1012.5
20260506014526 33 171 0.0 0.0 0.00 0.00 0.00 92 1012.4
20260506014024 33 171 0.0 0.0 0.00 0.00 0.00 92 1012.4
20260506013525 33 171 0.0 0.0 0.00 0.00 0.00 92 1012.4
20260506013024 33 171 0.0 0.0 0.00 0.00 0.00 92 1012.3
20260506012524 34 171 0.0 0.0 0.00 0.00 0.00 92 1012.3
20260506012025 34 171 0.0 0.0 0.00 0.00 0.00 92 1012.4
20260506011524 34 171 0.0 0.0 0.00 0.00 0.00 92 1012.3
20260506011023 34 171 0.0 0.0 0.00 0.00 0.00 92 1012.2
20260506010522 34 171 0.0 0.0 0.00 0.00 0.00 91 1012.2
20260506010020 34 171 0.0 0.0 0.00 0.00 0.00 91 1012.2
20260506005520 35 171 0.0 0.0 0.00 0.00 0.00 91 1012.2
20260506005020 35 171 0.0 0.0 0.00 0.00 0.00 91 1012.2
20260506004524 36 171 0.0 0.0 0.00 0.00 0.00 92 1012.2
20260506004020 36 171 0.0 0.0 0.00 0.00 0.00 92 1012.2
20260506003519 36 171 0.0 0.0 0.00 0.00 0.00 92 1012.2
20260506003018 36 171 0.0 0.0 0.00 0.00 0.00 92 1012.2
20260506002517 35 171 0.0 0.0 0.00 0.00 0.00 92 1012.1
20260506002017 35 171 0.0 0.0 0.00 0.00 0.00 92 1012.2
20260506001516 35 171 0.0 0.0 0.00 0.00 0.00 91 1012.2
20260506001016 35 171 0.0 0.0 0.00 0.00 0.00 91 1012.2
20260506000516 35 171 0.0 0.0 0.00 0.00 0.00 91 1012.1
20260506000018 35 171 0.0 0.0 0.00 0.00 0.00 91 1012.1
20260505235517 35 171 0.0 0.0 0.00 0.00 0.00 91 1012.2
20260505235015 35 171 0.0 0.0 0.00 0.00 0.00 90 1012.2
20260505234514 35 171 0.0 0.0 0.00 0.00 0.00 90 1012.2
20260505234014 35 171 0.0 0.0 0.00 0.00 0.00 90 1012.2
20260505233514 35 171 0.0 0.0 0.00 0.00 0.00 90 1012.2
20260505233013 35 171 0.0 0.0 0.00 0.00 0.00 90 1012.3
20260505232514 35 171 0.0 0.0 0.00 0.00 0.00 90 1012.3
20260505232012 35 171 0.0 0.0 0.00 0.00 0.00 89 1012.4
20260505231511 35 171 0.0 0.0 0.00 0.00 0.00 89 1012.4
20260505231014 35 171 0.0 0.0 0.00 0.00 0.00 89 1012.4
20260505230510 36 171 0.0 0.0 0.00 0.00 0.00 89 1012.5
20260505230014 36 171 0.0 0.0 0.00 0.00 0.00 89 1012.5
20260505225511 36 171 0.0 0.0 0.00 0.00 0.00 89 1012.5
20260505225011 36 171 0.0 0.0 0.00 0.00 0.00 89 1012.5
20260505224509 35 171 0.0 0.0 0.00 0.00 0.00 89 1012.4
20260505224007 35 171 0.0 0.0 0.00 0.00 0.00 88 1012.3
20260505223512 35 171 0.0 0.0 0.00 0.00 0.00 87 1012.4
20260505223006 35 171 0.0 0.0 0.00 0.00 0.00 87 1012.4
20260505222506 36 171 0.0 0.0 0.00 0.00 0.00 87 1012.4
20260505222004 36 171 0.0 0.0 0.00 0.00 0.00 87 1012.5
20260505221507 36 171 0.0 0.0 0.00 0.00 0.00 86 1012.4
20260505221004 36 171 0.0 0.0 0.00 0.00 0.00 86 1012.4
20260505220501 36 171 0.0 0.0 0.00 0.00 0.00 86 1012.4
20260505220101 36 171 0.0 0.0 0.00 0.00 0.00 86 1012.4
20260505215600 37 171 0.0 0.0 0.00 0.00 0.00 85 1012.5
20260505215059 37 171 0.0 0.0 0.00 0.00 0.00 85 1012.5
20260505214601 37 171 0.0 0.0 0.00 0.00 0.00 84 1012.5
20260505214058 37 171 0.0 0.0 0.00 0.00 0.00 84 1012.6
20260505213556 38 171 0.0 0.0 0.00 0.00 0.00 83 1012.5
20260505213055 39 171 0.0 0.0 0.00 0.00 0.00 84 1012.5
20260505212555 39 171 0.0 0.0 0.00 0.00 0.00 85 1012.5
20260505212055 39 171 0.0 0.0 0.00 0.00 0.00 84 1012.5
20260505211607 39 171 0.0 0.0 0.00 0.00 0.00 84 1012.5
20260505211055 39 171 0.0 0.0 0.00 0.00 0.00 83 1012.5
20260505210554 39 171 0.0 0.0 0.00 0.00 0.00 82 1012.5
20260505210054 40 171 0.0 0.0 0.00 0.00 0.00 81 1012.5
20260505205554 40 171 0.0 0.0 0.00 0.00 0.00 80 1012.5
20260505205057 40 171 0.0 0.0 0.00 0.00 0.00 79 1012.5
20260505204600 41 171 0.0 0.0 0.00 0.00 0.00 78 1012.5
20260505204053 41 171 0.0 0.0 0.00 0.00 0.00 79 1012.5
20260505203557 41 171 0.0 0.0 0.00 0.00 0.00 79 1012.4
20260505203057 41 171 0.0 0.0 0.00 0.00 0.00 78 1012.4
20260505202554 41 171 0.0 0.0 0.00 0.00 0.00 78 1012.5
20260505202055 42 171 0.0 0.0 0.00 0.00 0.00 78 1012.4
20260505201558 42 171 0.0 0.0 0.00 0.00 0.00 77 1012.4
20260505201052 42 171 0.0 0.0 0.00 0.00 0.00 76 1012.4
20260505200553 43 171 0.0 0.0 0.00 0.00 0.00 75 1012.4
20260505200052 43 171 0.0 0.0 0.00 0.00 0.00 74 1012.4
20260505195552 44 171 0.0 0.0 0.00 0.00 0.00 73 1012.4
20260505195052 45 171 0.0 0.0 0.00 0.00 0.00 72 1012.4
20260505194608 46 171 0.0 0.0 0.00 0.00 0.00 70 1012.5
20260505194052 46 171 0.0 0.0 0.00 0.00 0.00 69 1012.4
20260505193551 47 171 0.0 0.0 0.00 0.00 0.00 69 1012.4
20260505193052 48 171 0.0 0.0 0.00 0.00 0.00 70 1012.4
20260505192552 48 171 0.0 0.9 0.00 0.00 0.00 71 1012.4
20260505192050 47 171 0.0 0.9 0.00 0.00 0.00 74 1012.4
20260505191551 47 171 0.0 1.7 0.00 0.00 0.00 72 1012.4
20260505191051 46 171 0.0 1.7 0.00 0.00 0.00 73 1012.3
20260505190550 46 171 0.0 0.9 0.00 0.00 0.00 72 1012.3
20260505190050 46 171 0.0 0.9 0.00 0.00 0.00 71 1012.3
20260505185552 47 171 0.0 0.0 0.00 0.00 0.00 69 1012.3
20260505185050 47 171 0.0 0.0 0.00 0.00 0.00 68 1012.2
20260505184550 48 171 0.0 0.0 0.00 0.00 0.00 68 1012.3
20260505184050 48 171 0.0 0.0 0.00 0.00 0.00 67 1012.2
20260505183549 48 171 0.0 0.0 0.00 0.00 0.00 66 1012.2
20260505183050 49 171 0.0 0.0 0.00 0.00 0.00 65 1012.1
20260505182549 49 171 0.0 0.0 0.00 0.00 0.00 64 1012.1
20260505182049 49 171 0.0 0.0 0.00 0.00 0.00 64 1012.2
20260505181555 49 171 0.0 0.9 0.00 0.00 0.00 62 1012.2
20260505181049 50 171 0.0 0.9 0.00 0.00 0.00 62 1012.2
20260505180548 50 171 0.0 0.9 0.00 0.00 0.00 61 1012.2
20260505180048 50 171 0.0 0.9 0.00 0.00 0.00 61 1012.2
20260505175550 51 171 0.0 0.9 0.00 0.00 0.00 61 1012.2
20260505175048 51 171 0.0 1.7 0.00 0.00 0.00 60 1012.2
20260505174555 51 171 0.0 1.7 0.00 0.00 0.00 58 1012.2
20260505174048 52 184 0.0 1.7 0.00 0.00 0.00 58 1012.3
20260505173549 52 82 0.0 1.7 0.00 0.00 0.00 57 1012.2
20260505173048 52 227 0.0 0.9 0.00 0.00 0.00 56 1012.2
20260505172548 53 227 0.0 0.9 0.00 0.00 0.00 56 1012.2
20260505172048 52 227 0.0 1.7 0.00 0.00 0.00 56 1012.2
20260505171551 52 227 0.0 2.6 0.00 0.00 0.00 57 1012.2
20260505171046 53 69 0.9 2.6 0.00 0.00 0.00 57 1012.2
20260505170546 53 157 0.0 2.6 0.00 0.00 0.00 58 1012.2
20260505170047 53 37 0.0 2.6 0.00 0.00 0.00 56 1012.1
20260505165548 53 82 0.0 3.5 0.00 0.00 0.00 58 1012.2
20260505165046 53 171 0.9 2.6 0.00 0.00 0.00 57 1012.2
20260505164607 53 219 0.9 2.6 0.00 0.00 0.00 57 1012.2
20260505164050 53 147 0.9 2.6 0.00 0.00 0.00 58 1012.2
20260505163545 53 167 0.9 3.5 0.00 0.00 0.00 59 1012.2
20260505163053 52 51 0.9 4.3 0.00 0.00 0.00 59 1012.1
20260505162545 53 63 0.9 4.3 0.00 0.00 0.00 57 1012.2
20260505162045 53 173 1.7 3.5 0.00 0.00 0.00 58 1012.2
20260505161545 53 127 0.0 2.6 0.00 0.00 0.00 58 1012.2
20260505161045 53 73 0.0 3.5 0.00 0.00 0.00 58 1012.2
20260505160545 53 126 0.9 5.2 0.00 0.00 0.00 59 1012.2
20260505153044 53 153 1.7 7.0 0.00 0.00 0.00 58 1012.3
20260505152543 54 165 2.6 5.2 0.00 0.00 0.00 58 1012.2
20260505152043 54 172 2.6 4.3 0.00 0.00 0.00 57 1012.2
20260505151546 54 175 1.7 6.1 0.00 0.00 0.00 57 1012.2
20260505151042 55 171 0.9 6.1 0.00 0.00 0.00 56 1012.2
20260505150542 55 92 0.0 6.1 0.00 0.00 0.00 55 1012.2
20260505140540 55 202 1.7 5.2 0.00 0.00 0.00 59 1012.4
20260505125035 56 33 1.7 3.5 0.00 0.00 0.00 55 1012.2
20260505124539 57 86 0.9 3.5 0.00 0.00 0.00 57 1012.2
20260505124034 56 32 0.9 5.2 0.00 0.00 0.00 58 1012.2
20260505123535 56 74 1.7 4.3 0.00 0.00 0.00 56 1012.2
20260505123038 56 60 0.9 5.2 0.00 0.00 0.00 58 1012.3
20260505122532 56 69 1.7 5.2 0.00 0.00 0.00 56 1012.3
20260505122031 55 44 1.7 5.2 0.00 0.00 0.00 58 1012.3
20260505121532 55 50 2.6 5.2 0.00 0.00 0.00 57 1012.4
20260505121031 56 63 2.6 6.1 0.00 0.00 0.00 56 1012.3
20260505120531 56 53 2.6 6.1 0.00 0.00 0.00 56 1012.3
20260505120030 56 16 0.9 3.5 0.00 0.00 0.00 58 1012.3
20260505115528 56 68 0.9 4.3 0.00 0.00 0.00 56 1012.3
20260505115028 56 5 1.7 5.2 0.00 0.00 0.00 56 1012.3
20260505114528 55 46 0.9 5.2 0.00 0.00 0.00 58 1012.3
20260505114027 56 31 1.7 4.3 0.00 0.00 0.00 57 1012.3
20260505113527 55 28 1.7 3.5 0.00 0.00 0.00 58 1012.3
20260505113026 55 113 0.9 5.2 0.00 0.00 0.00 58 1012.4
20260505112525 55 34 1.7 4.3 0.00 0.00 0.00 56 1012.4
20260505112024 56 58 1.7 5.2 0.00 0.00 0.00 57 1012.4
20260505111533 56 98 0.9 3.5 0.00 0.00 0.00 58 1012.4
20260505111024 55 105 1.7 4.3 0.00 0.00 0.00 60 1012.4
20260505110522 55 53 1.7 4.3 0.00 0.00 0.00 58 1012.5
20260505102017 55 21 2.6 8.7 0.00 0.00 0.00 56 1012.6
20260505101517 55 65 3.5 8.7 0.00 0.00 0.00 55 1012.6
20260505101016 56 13 1.7 5.2 0.00 0.00 0.00 56 1012.6
20260505100517 56 35 0.9 6.1 0.00 0.00 0.00 61 1012.6
20260505100018 56 45 1.7 7.0 0.00 0.00 0.00 59 1012.6
20260505095514 56 109 1.7 5.2 0.00 0.00 0.00 59 1012.6
20260505095013 56 82 1.7 5.2 0.00 0.00 0.00 59 1012.6
20260505094515 56 42 0.9 5.2 0.00 0.00 0.00 60 1012.6
20260505094011 55 64 1.7 8.7 0.00 0.00 0.00 62 1012.5
20260505093511 55 13 1.7 8.7 0.00 0.00 0.00 61 1012.5